User: anonymous   Login
Location: Unspecified
(0.0000°N, 0.0000°E)
Time: 05:32:30
(UTC+00:00)
Language:

USA 135 - Orbit

View from above orbital plane
View from above orbital plane
View from above satellite
View from above satellite

Ground track
Ground track

The orbit data is extracted from the following two-line orbital elements,

1 25019U 97065A   18231.51354325 0.00000000  00000-0  00000-0 0    00
2 25019   9.4310  40.7676 0007408 248.5863 111.3427  1.00270000    00
Epoch (UTC): 19 August 2018 12:19:30
Eccentricity: 0.0007408
inclination: 9.4310°
perigee height: 35755 km
apogee height: 35818 km
right ascension of ascending node: 40.7676°
argument of perigee: 248.5863°
revolutions per day: 1.00270000
mean anomaly at epoch: 111.3427°
orbit number at epoch: 0

The dashed part of the orbit path shows where the satellite is in the earth's shadow,  

DLR